Weather History for Ainsworth, NE

Change the Weather History Date:

Sunday, February 17, 2013

  Actual Average Record
Temperature  
Mean Temperature 40 °F -  
Max Temperature 54 °F 38 °F 66 °F (1997)
Min Temperature 26 °F 19 °F -13 °F (2006)
Degree Days  
Heating Degree Days 25    
Moisture  
Dew Point 26 °F    
Average Humidity 62    
Maximum Humidity 87    
Minimum Humidity 28    
Precipitation  
Precipitation 0.00 in - - ()
Sea Level Pressure  
Sea Level Pressure 29.66 in    
Wind  
Wind Speed 9 mph (SW)    
Max Wind Speed 21 mph    
Max Gust Speed 29 mph    
Visibility 10 miles    
Events      
Averages and records for this station are not official NWS values.
T = Trace of Precipitation, MM = Missing Value Source: NWS Daily Summary

Daily Weather History Graph

Daily Weather History Graph

Search for Another Location

Airport:

Trip Planner

Search our weather history database for the weather conditions in past years. The results will help you decide how hot, cold, wet, or windy it might be!

Date:

Astronomy

Feb. 17, 2013 Rise Set
Actual Time 7:33 AM CST 6:14 PM CST
Civil Twilight 7:04 AM CST 6:43 PM CST
Nautical Twilight 6:31 AM CST 7:16 PM CST
Astronomical Twilight 5:59 AM CST 7:49 PM CST
Moon 11:17 AM CST (2/17) 1:22 AM CST (2/17)
Length of Visible Light 11h 39m
Length of Day
10h 41m
Waxing Crescent, 49% of the Moon is Illuminated
Feb 17
Waxing Crescent
Feb 17
First Quarter
Feb 25
Full
Mar 4
Last Quarter
Mar 11
New

Hourly Weather History & Observations

Time (CST) Temp. Windchill Dew Point Humidity Pressure Visibility Wind Dir Wind Speed Gust Speed Precip Events Conditions
12:15 AM 30.2 °F 25.4 °F 26.2 °F 85% 29.89 in 10.0 mi SW 4.6 mph - N/A   Clear
12:35 AM 30.2 °F 24.3 °F 25.7 °F 83% 29.88 in 10.0 mi SSW 5.8 mph - N/A   Clear
12:55 AM 27.9 °F 20.6 °F 24.3 °F 86% 29.87 in 10.0 mi South 6.9 mph - N/A   Clear
1:15 AM 27.7 °F 20.4 °F 24.1 °F 86% 29.87 in 10.0 mi South 6.9 mph - N/A   Clear
1:35 AM 27.9 °F 19.1 °F 24.4 °F 87% 29.86 in 10.0 mi South 9.2 mph - N/A   Clear
1:55 AM 27.7 °F 21.3 °F 23.7 °F 85% 29.85 in 10.0 mi South 5.8 mph - N/A   Clear
2:15 AM 27.9 °F 20.6 °F 24.1 °F 86% 29.84 in 10.0 mi South 6.9 mph - N/A   Clear
2:35 AM 28.6 °F 20.7 °F 24.4 °F 84% 29.85 in 10.0 mi South 8.1 mph - N/A   Clear
2:55 AM 26.6 °F 20.0 °F 23.0 °F 86% 29.83 in 10.0 mi SSW 5.8 mph - N/A   Clear
3:15 AM 26.2 °F 18.6 °F 22.8 °F 87% 29.82 in 10.0 mi South 6.9 mph - N/A   Clear
3:35 AM 26.8 °F 18.5 °F 23.4 °F 87% 29.81 in 10.0 mi South 8.1 mph - N/A   Clear
3:55 AM 29.1 °F 21.3 °F 25.2 °F 85% 29.80 in 10.0 mi South 8.1 mph - N/A   Clear
4:15 AM 28.9 °F 21.1 °F 24.6 °F 84% 29.78 in 10.0 mi South 8.1 mph - N/A   Clear
4:35 AM 28.0 °F 21.7 °F 24.3 °F 86% 29.78 in 10.0 mi SSW 5.8 mph - N/A   Clear
4:55 AM 29.1 °F 20.6 °F 25.5 °F 86% 29.78 in 10.0 mi SSW 9.2 mph - N/A   Clear
5:15 AM 29.1 °F 23.0 °F 25.2 °F 85% 29.77 in 10.0 mi SSW 5.8 mph - N/A   Clear
5:35 AM 27.5 °F 21.1 °F 23.9 °F 86% 29.76 in 10.0 mi South 5.8 mph - N/A   Clear
5:55 AM 27.9 °F 22.6 °F 24.3 °F 86% 29.76 in 10.0 mi SSW 4.6 mph - N/A   Clear
6:15 AM 28.4 °F 21.2 °F 24.1 °F 84% 29.75 in 10.0 mi SSW 6.9 mph - N/A   Clear
6:35 AM 27.9 °F 20.6 °F 23.2 °F 83% 29.74 in 10.0 mi South 6.9 mph - N/A   Clear
6:55 AM 26.8 °F 19.3 °F 23.0 °F 86% 29.73 in 10.0 mi South 6.9 mph - N/A   Clear
7:15 AM 27.5 °F 20.2 °F 23.4 °F 84% 29.72 in 10.0 mi South 6.9 mph - N/A   Clear
7:35 AM 29.5 °F 23.4 °F 23.9 °F 80% 29.71 in 10.0 mi SSW 5.8 mph - N/A   Clear
7:55 AM 29.3 °F 22.3 °F 23.7 °F 80% 29.71 in 10.0 mi SSW 6.9 mph - N/A   Clear
8:15 AM 31.5 °F 24.9 °F 24.6 °F 76% 29.69 in 10.0 mi SSW 6.9 mph - N/A   Clear
8:35 AM 31.8 °F 23.9 °F 25.3 °F 77% 29.69 in 10.0 mi SSW 9.2 mph - N/A   Clear
8:55 AM 33.1 °F 24.4 °F 25.9 °F 75% 29.68 in 10.0 mi SSW 11.5 mph - N/A   Clear
9:15 AM 35.4 °F 27.3 °F 26.8 °F 71% 29.67 in 10.0 mi SSW 11.5 mph - N/A   Clear
9:35 AM 37.4 °F 31.4 °F 27.9 °F 68% 29.67 in 10.0 mi SSW 8.1 mph - N/A   Clear
9:55 AM 38.8 °F 33.2 °F 27.3 °F 63% 29.66 in 10.0 mi SW 8.1 mph - N/A   Clear
10:15 AM 38.7 °F 31.4 °F 27.3 °F 64% 29.65 in 10.0 mi SW 11.5 mph - N/A   Clear
10:35 AM 39.2 °F 32.0 °F 27.5 °F 63% 29.64 in 10.0 mi SW 11.5 mph - N/A   Clear
10:55 AM 42.1 °F 34.9 °F 27.7 °F 57% 29.63 in 10.0 mi SW 13.8 mph - N/A   Clear
11:15 AM 45.0 °F 37.9 °F 27.7 °F 51% 29.62 in 10.0 mi SW 16.1 mph - N/A   Clear
11:35 AM 46.6 °F - 28.4 °F 49% 29.61 in 10.0 mi SW 16.1 mph - N/A   Clear
11:55 AM 47.7 °F - 28.0 °F 47% 29.60 in 10.0 mi SW 15.0 mph 18.4 mph N/A   Clear
12:15 PM 49.3 °F - 28.0 °F 44% 29.60 in 10.0 mi SW 15.0 mph - N/A   Clear
12:55 PM 50.0 °F - 27.3 °F 41% 29.57 in 10.0 mi SW 10.4 mph - N/A   Clear
1:15 PM 51.8 °F - 27.1 °F 39% 29.55 in 10.0 mi SW 12.7 mph - N/A   Clear
1:35 PM 52.7 °F - 26.1 °F 36% 29.55 in 10.0 mi WSW 16.1 mph 20.7 mph N/A   Clear
1:55 PM 53.6 °F - 23.9 °F 32% 29.53 in 10.0 mi WSW 12.7 mph - N/A   Clear
2:15 PM 54.5 °F - 23.4 °F 30% 29.52 in 10.0 mi WSW 11.5 mph - N/A   Clear
2:35 PM 54.3 °F - 22.3 °F 29% 29.52 in 10.0 mi SW 15.0 mph - N/A   Clear
2:55 PM 54.1 °F - 21.4 °F 28% 29.51 in 10.0 mi WSW 13.8 mph 23.0 mph N/A   Clear
3:15 PM 53.6 °F - 21.6 °F 29% 29.51 in 10.0 mi WSW 13.8 mph 20.7 mph N/A   Clear
3:35 PM 52.7 °F - 22.5 °F 31% 29.50 in 10.0 mi SW 13.8 mph - N/A   Clear
3:55 PM 52.7 °F - 22.5 °F 31% 29.50 in 10.0 mi SW 13.8 mph - N/A   Clear
4:15 PM 51.8 °F - 23.4 °F 33% 29.50 in 10.0 mi SW 13.8 mph - N/A   Clear
4:35 PM 50.9 °F - 24.6 °F 36% 29.50 in 10.0 mi SW 11.5 mph - N/A   Clear
4:55 PM 50.2 °F - 24.6 °F 37% 29.50 in 10.0 mi SW 12.7 mph - N/A   Clear
5:15 PM 49.3 °F - 24.6 °F 38% 29.50 in 10.0 mi WSW 12.7 mph - N/A   Clear
5:35 PM 48.7 °F - 24.8 °F 39% 29.51 in 10.0 mi SW 11.5 mph - N/A   Clear
5:55 PM 46.4 °F 41.1 °F 26.6 °F 46% 29.51 in 10.0 mi SW 11.5 mph - N/A   Clear
6:15 PM 46.6 °F - 24.6 °F 42% 29.52 in 10.0 mi WSW 6.9 mph - N/A   Clear
6:35 PM 43.0 °F 38.8 °F 25.5 °F 50% 29.52 in 10.0 mi WSW 6.9 mph - N/A   Clear
6:55 PM 42.8 °F 37.0 °F 25.5 °F 51% 29.54 in 10.0 mi WSW 10.4 mph - N/A   Clear
7:15 PM 44.6 °F 39.2 °F 24.8 °F 46% 29.55 in 10.0 mi West 10.4 mph - N/A   Clear
7:35 PM 44.4 °F 40.5 °F 25.7 °F 48% 29.56 in 10.0 mi WNW 6.9 mph - N/A   Clear
7:55 PM 43.9 °F 39.9 °F 26.1 °F 50% 29.57 in 10.0 mi WNW 6.9 mph - N/A   Clear
8:15 PM 42.1 °F 36.1 °F 26.8 °F 55% 29.58 in 10.0 mi WNW 10.4 mph - N/A   Clear
8:35 PM 43.3 °F 35.5 °F 28.6 °F 56% 29.60 in 10.0 mi NW 17.3 mph 21.9 mph N/A   Clear
8:55 PM 42.8 °F 35.1 °F 29.1 °F 58% 29.61 in 10.0 mi NW 16.1 mph 21.9 mph N/A   Clear
9:15 PM 41.9 °F 33.4 °F 28.9 °F 60% 29.62 in 10.0 mi NW 18.4 mph 24.2 mph N/A   Clear
9:35 PM 41.2 °F 31.9 °F 28.9 °F 62% 29.64 in 10.0 mi NW 20.7 mph 25.3 mph N/A   Clear
9:55 PM 41.0 °F 31.6 °F 29.1 °F 63% 29.64 in 10.0 mi NW 20.7 mph 28.8 mph N/A   Clear
10:15 PM 40.5 °F 31.8 °F 29.1 °F 64% 29.65 in 10.0 mi NNW 17.3 mph 27.6 mph N/A   Clear
10:35 PM 39.9 °F 32.5 °F 29.1 °F 65% 29.65 in 10.0 mi NNW 12.7 mph - N/A   Scattered Clouds
10:55 PM 39.4 °F 32.3 °F 29.3 °F 67% 29.68 in 10.0 mi NW 11.5 mph - N/A   Mostly Cloudy
11:15 PM 39.2 °F 33.0 °F 29.3 °F 68% 29.68 in 10.0 mi NW 9.2 mph - N/A   Overcast
11:35 PM 38.8 °F 32.1 °F 29.3 °F 69% 29.69 in 10.0 mi NW 10.4 mph - N/A   Overcast
11:55 PM 39.2 °F 30.5 °F 28.4 °F 65% 29.69 in 10.0 mi NW 16.1 mph 21.9 mph N/A   Overcast